www.pogodaiklimat.ru

Погода и климат >> Архив погоды >> Россия >> Волгоградская область >> Иловля


ПОГОДА в Иловле

  • Прогноз погоды в Иловле
  • Монитор погоды в Иловле

АРХИВ ПОГОДЫ в Иловле

Время (UTC), дата Ветер
(напр.,м/с)
 
Видим.   Явления Облачность Т
(С)
Тd
(С)
f
(%)
Тe
(С)
Тes
(С)
Комфортность P
(гПа)
Po
(гПа)
Тmin
(С)
Tmax
(С)
R
(мм)
R24
(мм)
S
(см)
09 9.07 З 1 10 км слаб. ливневой дождь 10/10 300 м
[Cb calv]
+19.6 +17.2 86 +23 +23 комфорт 1004.9 999.7
12 9.07 ЮЗ 2 10 км {ливн. осадки} 8/5 600 м
[Cb calv Ac trans]
+26.2 +15.5 52 +29 +33 жарко 1004.1 999.1
15 9.07 З 4 10 км 4/4 600 м
[Sc diur, vesp]
+26.8 +10.6 36 +28 +28 жарко 1004.0 998.9 +27.2 5
18 9.07 З 1 10 км 4/3 600 м
[Sc Ci fib]
+21.3 +10.4 50 +23 +23 комфорт 1006.0 1000.8
21 9.07 З 1 10 км 3/0
[Ci fib]
+16.6 +10.1 65 +18 +18 1007.2 1001.9
00 10.07 З 1 10 км ясно +14.2 +8.1 67 +15 +15 1007.2 1001.9
03 10.07 ЮЗ 1 10 км 4/0
[Ci fib]
+14.7 +9.0 69 +15 +17 1007.4 1002.1 +11.7
06 10.07 З 2 10 км 8/0
[Ac trans Cs]
+22.3 +7.4 38 +23 +30 комфорт 1006.9 1001.7
09 10.07 ЮЗ 2 10 км 9/4 1000 м
[Cu hum Ac trans Cs]
+24.4 +5.0 29 +24 +30 комфорт 1006.4 1001.3
12 10.07 З 3 10 км 8/5 600 м
[Cb calv Ac trans Ci fib]
+25.4 +5.1 27 +25 +28 комфорт 1005.6 1000.5
15 10.07 ЮЗ 2 10 км 6/5 600 м
[Sc diur, vesp Ac trans]
+23.9 +5.7 31 +24 +25 комфорт 1005.2 1000.1 +25.7
18 10.07 Ю 1 10 км 3/1 600 м
[Sc Ci fib]
+19.8 +6.7 42 +22 +22 комфорт 1006.2 1001.0
21 10.07 штиль 0 10 км ясно +14.2 +8.9 70 +14 +14 1006.5 1001.2
00 11.07 Ю 1 10 км 6/0
[Ac trans Ci fib]
+13.9 +9.3 74 +14 +14 1006.3 1001.0
03 11.07 ЮВ 1 10 км 10/0
[Cs]
+15.4 +9.6 68 +16 +18 1006.4 1001.1 +12.5
06 11.07 Ю 2 10 км 10/0
[Ac trans Cs]
+23.1 +10.4 45 +25 +33 комфорт 1006.3 1001.2
09 11.07 ЮЗ 2 10 км 10/3 1000 м
[Cu hum Ac trans Cs]
+23.5 +8.9 39 +24 +30 комфорт 1006.1 1001.0
12 11.07 Ю 3
{11}
10 км 10/3 600 м
[Sc diur, vesp Ac und]
+23.2 +11.8 49 +26 +28 жарко 1005.3 1000.2
15 11.07 В 1 10 км слаб. ливневой дождь 10/10 300 м
[Cb calv]
+16.9 +14.0 83 +18 +18 1007.6 1002.4 +24.5 6
18 11.07 Ю 1 10 км {ливн. осадки} 10/6 300 м
[Sc Ac und]
+16.5 +14.6 89 +17 +17 1007.0 1001.7
21 11.07 З 1 10 км 10/0
[Ac trans Cs]
+15.2 +13.4 89 +16 +16 1006.9 1001.6
00 12.07 штиль 0 10 км 10/4 600 м
[Sc Ac und]
+14.3 +12.8 91 +14 +14 1006.9 1001.7
03 12.07 штиль 0 10 км 10/5 600 м
[Sc Ac und]
+14.7 +13.5 93 +14 +15 1006.4 1001.2 +14.1 0.5
06 12.07 З 1 10 км слаб. ливневой дождь 10/10 300 м
[Cb calv]
+16.0 +14.2 89 +17 +17 1007.0 1001.8
09 12.07 С 2 10 км гроза, ливневой дождь 10/10 300 м
[Cb cap]
+15.6 +13.3 86 +15 +15 1007.0 1001.8
12 12.07 С 1 10 км {гроза, ливн. осадки} 10/5 300 м
[Sc diur, vesp Ac trans]
+17.6 +13.2 75 +19 +21 1007.2 1002.0
15 12.07 С 2 10 км 8/3 300 м
[Sc Ac trans Ci fib]
+20.1 +11.8 59 +22 +23 комфорт 1006.7 1001.6 +20.4 7
18 12.07 штиль 0 10 км 3/3 600 м
[Sc]
+14.8 +12.0 83 +15 +15 1008.0 1002.7
21 12.07 штиль 0 10 км 4/0
[Ci fib]
+12.6 +11.1 91 +12 +12 1007.6 1002.3
00 13.07 ЮЗ 1 10 км 3/0
[Ci fib]
+11.6 +10.4 92 +11 +11 1007.1 1001.8
03 13.07 штиль 0 10 км 5/0
[Ci fib]
+13.6 +12.4 92 +13 +15 1007.4 1002.1 +11.1
06 13.07 штиль 0 10 км 8/0
[Cs]
+22.0 +13.4 58 +25 +37 комфорт 1007.6 1002.4
09 13.07 ЮЗ 2 10 км 8/4 1000 м
[Cu hum Ci fib]
+25.9 +9.6 36 +27 +36 жарко 1007.3 1002.2
12 13.07 СЗ 2 10 км гроза без осадков {ливн. осадки} 10/8 300 м
[Cb cap Ci fib]
+23.4 +13.6 54 +27 +29 душно 1006.7 1001.6
15 13.07 С 2
{11}
10 км {гроза} 9/4 600 м
[Sc diur, vesp Ac trans Cs]
+20.9 +12.4 58 +24 +25 комфорт 1008.2 1003.0 +27.1 0.3
18 13.07 Ю 2 10 км {гроза, ливн. осадки} 10/6 600 м
[Sc Ac trans]
+17.2 +13.9 81 +18 +18 1009.6 1004.4
21 13.07 штиль 0 10 км 10/8 300 м
[Sc Ac trans]
+16.3 +13.3 82 +16 +16 1009.2 1003.9
00 14.07 штиль 0 10 км 10/5 300 м
[Sc Ac trans]
+15.4 +13.1 86 +15 +15 1008.8 1003.5
03 14.07 З 1 10 км 5/0
[Ac trans Ci fib]
+17.3 +13.1 76 +18 +20 1009.3 1004.0 +15.2
06 14.07 Ю 1 10 км 8/0
[Ac trans]
+22.0 +11.6 52 +24 +31 комфорт 1009.5 1004.3
09 14.07 Ю 1 10 км 5/5 1000 м
[Cu hum]
+25.5 +8.9 35 +26 +36 жарко 1008.7 1003.6
12 14.07 штиль 0 10 км 6/4 1000 м
[Cu hum Ac trans]
+26.6 +7.1 29 +26 +34 жарко 1007.8 1002.7
15 14.07 СЗ 2 10 км 5/3 600 м
[Sc diur, vesp Ac trans]
+26.6 +7.9 31 +27 +28 жарко 1007.6 1002.5 +28.2
18 14.07 штиль 0 10 км 5/3 600 м
[Sc Ac trans Ci fib]
+19.8 +11.3 58 +21 +21 комфорт 1008.2 1003.0
21 14.07 СЗ 1 10 км ясно +17.3 +11.8 70 +18 +18 1008.1 1002.9
00 15.07 штиль 0 10 км ясно +15.6 +11.3 76 +15 +15 1008.0 1002.7
03 15.07 штиль 0 10 км 3/0
[Ci fib]
+16.8 +11.6 71 +17 +19 1008.5 1003.2 +14.2
06 15.07 С 1 10 км ясно +24.9 +11.6 43 +26 +39 жарко 1008.5 1003.4
09 15.07 З 1 10 км 5/5 1000 м
[Cu med, cong]
+28.3 +8.2 28 +28 +38 жарко 1008.0 1002.9
12 15.07 СВ 2 10 км 6/6 600 м
[Cb calv]
+30.1 +7.2 24 +29 +34 жарко 1007.2 1002.2
15 15.07 Ю 3 10 км 10/6 600 м
[Cb calv Cs]
+25.4 +10.4 39 +26 +27 жарко 1007.7 1002.6 +30.3
18 15.07 штиль 0 10 км {ливн. осадки} 10/3 600 м
[Sc diur, vesp Ac und Cs]
+22.1 +12.0 53 +24 +24 комфорт 1008.6 1003.4
21 15.07 СВ 1 10 км 6/0
[Ci fib]
+19.2 +11.3 60 +21 +21 комфорт 1008.9 1003.7
00 16.07 СВ 2 10 км 10/10 600 м
[Sc]
+19.2 +11.6 61 +21 +21 комфорт 1008.4 1003.2
03 16.07 штиль 0 10 км 10/6 600 м
[Sc Ac und]
+19.0 +12.2 65 +20 +20 1008.6 1003.4 +18.8
06 16.07 СЗ 2 10 км слаб. ливневой дождь 10/10 300 м
[Cb calv]
+17.5 +14.4 82 +18 +18 1009.6 1004.3 +17.5

 

Местоположение метеостанции Иловля (Волгоградская область, Россия): широта 49.30 долгота 44.00 высота над уровнем моря 44 м.

В архиве по умолчанию представлена погода в Иловле за последнюю неделю. Архивные данные за месяц целиком и за предыдущие месяцы, начиная с января 2011 года, Вы можете получить, выбрав интересующий диапазон дат из раскрывающегося списка и нажав кнопку "Ввод!".


*Определитесь, кто Вы:
робот инопланетянин человек

Внимание! Время в таблицах - всемирное. Для получения местного времени необходимо прибавить поправку, которая равна 3 ч.

Смотрите также архив погоды в соседних городах и на ближайших метеорологических станциях:

Погода в Фролове (Волгоградская область, Россия) (60 км)
Погода в Волгограде (Волгоградская область, Россия) (64 км)
Погода в Ольховке (Волгоградская область, Россия) (75 км)
Погода в Волгограде город (Волгоградская область, Россия) (77 км)
Погода в Калаче-на-Дону (Волгоградская область, Россия) (79 км)
Погода в Серафимовиче (Волгоградская область, Россия) (97 км)
Погода в Михайловке (Волгоградская область, Россия) (101 км)
Погода в Даниловке (Волгоградская область, Россия) (119 км)
Погода в Нижнем Чире (Волгоградская область, Россия) (126 км)
Погода в Камышине (Волгоградская область, Россия) (131 км)

Пояснения к столбцам:

Ветер - указаны скорость ветра в м/с - средняя за 10 мин, порывы в срок и между сроками (в фигурных скобках) и направление, откуда дует ветер: С - северный, СВ - северо-восточный, В - восточный, ЮВ - юго-восточный, Ю - южный, ЮЗ - юго-западный, З - западный, СЗ - северо-западный.
Видимость - горизонтальная дальность видимости в метрах или километрах. При видимости от 1 до 10 км при отсутствии осадков обычно наблюдается дымка, при ухудшении видимости до 1 км и менее - туман. В сухую погоду видимость может ухудшаться дымом, пылью или мглою.
Явления - указаны атмосферные явления, наблюдавшиеся в срок или в последний час перед сроком; фигурными скобками обозначены явления, наблюдавшиеся между сроками (за 1-3 часа до срока); квадратными скобками обозначены град или гололедные отложения с указанием их диаметра в мм.
Облачность - указаны через наклонную черту общая и нижняя облачность в баллах и высота нижней границы облаков в метрах; квадратными скобками обозначены формы облаков: Ci - перистые, Cs - перисто-слоистые, Cc - перисто-кучевые, Ac - высококучевые, As - высокослоистые, Sc - слоисто-кучевые, Ns - слоисто-дождевые, Cu - кучевые, Cb - кучево-дождевые. Подробнее классификацию облаков см. в Атласе облаков (PDF).
T - Температура воздуха - температура, измеренная на высоте 2 м над землей.
Td - Температура точки росы - температура, при понижении до которой содержащийся в воздухе водяной пар достигнет насыщения.
f - Относительная влажность воздуха - влажноcть воздуха, измеренная на высоте 2 м над землей.
Te - Эффективная температура - температура, которую ощущает одетый по сезону человек в тени. Характеристика душности погоды. При расчете учитывается влияние влажности воздуха и скорости ветра на теплоощущения человека.
Tes - Эффективная температура на солнце - температура, которую ощущает человек, с поправкой на солнечный нагрев. Характеристика знойности погоды. Зависит от высоты солнца над горизонтом, облачности и скорости ветра. Ночью, в пасмурную погоду, а также при ветре 12 м/с и более поправка равна нулю.
P - Атмосферное давление - приведенное к уровню моря атмосферное давление.
Po - Атмосферное давление - измеренное на уровне метеостанции атмосферное давление.
Tmin - Минимальная температура - минимум температуры воздуха на высоте 2 м над землей.
Tmax - Максимальная температура - максимум температуры воздуха на высоте 2 м над землей.
R - Количество осадков - Количество выпавших осадков за период времени, мм. При наведении курсора мыши на число - период времени, за который выпало указанное количество осадков.
R24 - Количество осадков - Количество выпавших осадков за 24 часа, мм.
S - Снежный покров - Высота снежного покрова, см. При наведении курсора мыши на число - состояние снежного покрова и степень покрытия местности в баллах.